Location: �quirre
(50.4736°N, 2.2351°E)
Time: 16:00:44
(UTC+00:00)

Cosmos 1455 Rocket - Pass Details

Date: 07 August 2020
Orbit: 604 x 630 km, 82.5° (Epoch: 25 September)

Event Time Altitude Azimuth Distance (km) Brightness Sun altitude
Exits shadow 03:11:32 14° 215° (SW) 1,715 4.7 -10.8°
Maximum altitude 03:15:03 46° 285° (WNW) 845 3.5 -10.4°
Drops below altitude 10° 03:19:22 10° 360° (N) 2,017 6.3 -9.8°
Sets 03:21:42 0° 6° (N) 2,932 7.3 -9.6°
